Location: Novo Ouro Preto
(19.8840°S, 43.9844°W)
Time: 09:14:31
(UTC+00:00)

Okean O Rocket - Pass Details

Date: 18 September 2020
Orbit: 622 x 645 km, 98.2° (Epoch: 22 October)

Event Time Altitude Azimuth Distance (km) Brightness Sun altitude
Rises 21:41:52 0° 188° (S) 2,953 5.2 -12.7°
Reaches altitude 10° 21:44:27 10° 203° (SSW) 2,041 4.6 -13.3°
Maximum altitude 21:47:54 22° 253° (WSW) 1,389 4.3 -14.1°
Drops below altitude 10° 21:51:21 10° 305° (NW) 2,034 5.0 -14.9°
Sets 21:53:56 0° 319° (NW) 2,938 5.6 -15.6°
